SJ-21 AKM (49382 NORAD) Tracking and Keplerian Element Data

This shows tracking and keplerian element data for the satellite.

Feedback or suggestion? Click here.




ElementValue
Catalog49382
NameSJ-21 AKM
Epoch Orbit94
Epoch Day326.87618747
Epoch Year2021
RAAN50.9163
Inclination8.1489
Eccentricity0.0001752
Argument of Perigee30.0117
Mean Anonmoly71.5632
Mean Motion0.99974641
Decay Rate-3.31E-06
L11 49382U 21094C 21326.87618747 -.00000331 00000+0 00000+0 0 9990
L22 49382 8.1489 50.9163 0001752 30.0117 71.5632 0.99974641 945



Live tracking and technical data element details for SJ-21 AKM (NORAD 49382). SJ-21 AKM can be tracked NOW for your location showing map with azimuth and elevation plus other details from your city location.







IsCatalogInMostPopularTable: catalog: 49382, numindb: 58
Update: records affected: 1



GetName: 49382 SJ-21 AKM

Hit Count: updated at: Sun, 28 May 2023 19:43:08 GMT